This demonstration page uses our WeatherBlox Daily Observations layout. Learn more.

Left ArrowRight Arrow

Hourly Observations for October 3, 2022

Temp ( °F °C ) Dew Point ( °F °C ) Humidity (%) Winds ( mph kmh ) Pressure ( in mb ) Visibility ( mi km ) Precip ( " mm )
12:52 am 00:52 Partly Cloudy 58 14.4 44 6.7 60 60 SE 7 11 30.24 1024 10 16 0.00 0.00
1:52 am 01:52 Partly Cloudy 57 13.9 43 6.1 59 59 SE 9 15 30.23 1024 10 16 0.00 0.00
2:52 am 02:52 Mostly Clear 57 13.9 43 6.1 59 59 SSE 7 11 30.24 1024 10 16 0.00 0.00
3:52 am 03:52 Mostly Clear 53 11.7 43 6.1 68 68 SE 8 13 30.22 1024 10 16 0.00 0.00
4:52 am 04:52 Mostly Clear 54 12.2 43 6.1 66 66 SSE 8 13 30.23 1024 10 16 0.00 0.00
5:52 am 05:52 Mostly Clear 55 12.8 43 6.1 64 64 SSE 9 15 30.23 1024 10 16 0.00 0.00
6:52 am 06:52 Mostly Clear 53 11.7 44 6.7 71 71 SE 9 15 30.24 1024 10 16 0.00 0.00
7:52 am 07:52 Mostly Cloudy 53 11.7 44 6.7 71 71 SE 8 13 30.26 1025 10 16 0.00 0.00
8:52 am 08:52 Mostly Cloudy 59 15 45 7.2 60 60 SSE 9 15 30.26 1025 10 16 0.00 0.00
9:52 am 09:52 Mostly Cloudy 62 16.7 46 7.8 56 56 SSE 10 17 30.27 1025 10 16 0.00 0.00
10:52 am 10:52 Mostly Cloudy 68 20 45 7.2 43 43 S 14 22 30.26 1025 10 16 0.00 0.00
11:52 am 11:52 Mostly Cloudy 73 22.8 46 7.8 38 38 SSE 14 22 30.24 1024 10 16 0.00 0.00
12:52 pm 12:52 Mostly Cloudy 76 24.4 46 7.8 35 35 S 14 22 30.22 1023 10 16 0.00 0.00
1:52 pm 13:52 Mostly Cloudy 79 26.1 46 7.8 31 31 SSE 14 22 30.19 1022 10 16 0.00 0.00
2:52 pm 14:52 Mostly Cloudy 80 26.7 45 7.2 29 29 SSE 15 24 30.16 1021 10 16 0.00 0.00
3:52 pm 15:52 Mostly Cloudy 81 27.2 44 6.7 27 27 SSE 15 24 30.14 1021 10 16 0.00 0.00
4:52 pm 16:52 Mostly Cloudy 80 26.7 44 6.7 28 28 SSE 16 26 30.13 1020 10 16 0.00 0.00
5:52 pm 17:52 Mostly Cloudy 79 26.1 44 6.7 29 29 SSE 13 20 30.12 1020 10 16 0.00 0.00
6:52 pm 18:52 Mostly Cloudy 75 23.9 45 7.2 34 34 SE 10 17 30.12 1020 10 16 0.00 0.00
7:52 pm 19:52 Mostly Cloudy 71 21.7 46 7.8 41 41 SE 10 17 30.13 1020 10 16 0.00 0.00
8:52 pm 20:52 Mostly Cloudy 69 20.6 46 7.8 44 44 SE 12 19 30.13 1020 10 16 0.00 0.00
9:52 pm 21:52 Mostly Cloudy 66 18.9 46 7.8 48 48 SE 12 19 30.14 1021 10 16 0.00 0.00
10:52 pm 22:52 Mostly Clear 62 16.7 46 7.8 56 56 SSE 10 17 30.14 1021 10 16 0.00 0.00
11:52 pm 23:52 Mostly Clear 64 17.8 47 8.3 54 54 SSE 10 17 30.15 1021 10 16 0.00 0.00

Powered by AerisWeather